2024-01-08;23:39:00;16.000000; 0.000000050614;0.05-0.4nm
2024-01-08;23:40:00;16.000000; 0.000000048513;0.05-0.4nm
2024-01-08;23:41:00;16.000000; 0.000000046032;0.05-0.4nm
2024-01-08;23:42:00;16.000000; 0.000000044720;0.05-0.4nm
2024-01-08;23:43:00;16.000000; 0.000000043252;0.05-0.4nm
2024-01-08;23:44:00;16.000000; 0.000000039132;0.05-0.4nm
2024-01-08;23:45:00;16.000000; 0.000000038741;0.05-0.4nm
2024-01-08;23:46:00;16.000000; 0.000000038151;0.05-0.4nm
2024-01-08;23:47:00;16.000000; 0.000000034915;0.05-0.4nm
2024-01-08;23:48:00;16.000000; 0.000000036226;0.05-0.4nm
2024-01-08;23:49:00;16.000000; 0.000000034896;0.05-0.4nm
2024-01-08;23:50:00;16.000000; 0.000000033610;0.05-0.4nm
2024-01-08;23:51:00;16.000000; 0.000000032790;0.05-0.4nm
2024-01-08;23:52:00;16.000000; 0.000000032217;0.05-0.4nm
2024-01-08;23:53:00;16.000000; 0.000000028925;0.05-0.4nm
2024-01-08;23:54:00;16.000000; 0.000000027529;0.05-0.4nm
2024-01-08;23:55:00;16.000000; 0.000000026481;0.05-0.4nm
2024-01-08;23:56:00;16.000000; 0.000000026215;0.05-0.4nm
2024-01-08;23:57:00;16.000000; 0.000000024109;0.05-0.4nm
2024-01-08;23:58:00;16.000000; 0.000000024887;0.05-0.4nm
2024-01-08;23:59:00;16.000000; 0.000000026430;0.05-0.4nm
2024-01-09;00:00:00;16.000000; 0.000000025011;0.05-0.4nm
2024-01-09;00:01:00;16.000000; 0.000000026058;0.05-0.4nm
2024-01-09;00:02:00;16.000000; 0.000000027716;0.05-0.4nm
2024-01-09;00:03:00;16.000000; 0.000000027953;0.05-0.4nm
2024-01-09;00:04:00;16.000000; 0.000000027902;0.05-0.4nm
2024-01-09;00:05:00;16.000000; 0.000000029682;0.05-0.4nm
2024-01-09;00:06:00;16.000000; 0.000000030361;0.05-0.4nm
2024-01-09;00:07:00;16.000000; 0.000000032679;0.05-0.4nm
2024-01-09;00:08:00;16.000000; 0.000000032668;0.05-0.4nm
2024-01-09;00:09:00;16.000000; 0.000000034637;0.05-0.4nm
2024-01-09;00:10:00;16.000000; 0.000000035328;0.05-0.4nm
2024-01-09;00:11:00;16.000000; 0.000000034162;0.05-0.4nm
2024-01-09;00:12:00;16.000000; 0.000000036586;0.05-0.4nm
2024-01-09;00:13:00;16.000000; 0.000000042760;0.05-0.4nm
2024-01-09;00:14:00;16.000000; 0.000000041007;0.05-0.4nm
2024-01-09;00:15:00;16.000000; 0.000000035329;0.05-0.4nm
2024-01-09;00:16:00;16.000000; 0.000000034795;0.05-0.4nm
2024-01-09;00:17:00;16.000000; 0.000000034157;0.05-0.4nm
2024-01-09;00:18:00;16.000000; 0.000000032178;0.05-0.4nm
2024-01-09;00:19:00;16.000000; 0.000000032687;0.05-0.4nm
2024-01-09;00:20:00;16.000000; 0.000000033170;0.05-0.4nm
2024-01-09;00:21:00;16.000000; 0.000000032512;0.05-0.4nm
2024-01-09;00:22:00;16.000000; 0.000000031775;0.05-0.4nm
2024-01-09;00:23:00;16.000000; 0.000000030951;0.05-0.4nm
2024-01-09;00:24:00;16.000000; 0.000000030788;0.05-0.4nm
2024-01-09;00:25:00;16.000000; 0.000000031356;0.05-0.4nm
2024-01-09;00:26:00;16.000000; 0.000000032081;0.05-0.4nm
2024-01-09;00:27:00;16.000000; 0.000000030732;0.05-0.4nm
2024-01-09;00:28:00;16.000000; 0.000000030835;0.05-0.4nm
2024-01-09;00:29:00;16.000000; 0.000000030018;0.05-0.4nm
2024-01-09;00:30:00;16.000000; 0.000000030978;0.05-0.4nm
2024-01-09;00:31:00;16.000000; 0.000000033790;0.05-0.4nm
2024-01-09;00:32:00;16.000000; 0.000000038964;0.05-0.4nm
2024-01-09;00:33:00;16.000000; 0.000000042917;0.05-0.4nm
2024-01-09;00:34:00;16.000000; 0.000000043131;0.05-0.4nm
2024-01-09;00:35:00;16.000000; 0.000000043233;0.05-0.4nm
2024-01-09;00:36:00;16.000000; 0.000000042927;0.05-0.4nm
2024-01-09;00:37:00;16.000000; 0.000000043436;0.05-0.4nm
2024-01-09;00:38:00;16.000000; 0.000000042144;0.05-0.4nm
2024-01-09;00:39:00;16.000000; 0.000000041608;0.05-0.4nm
2024-01-09;00:40:00;16.000000; 0.000000040411;0.05-0.4nm
2024-01-09;00:41:00;16.000000; 0.000000040460;0.05-0.4nm
2024-01-09;00:42:00;16.000000; 0.000000039118;0.05-0.4nm
2024-01-09;00:43:00;16.000000; 0.000000038625;0.05-0.4nm
2024-01-09;00:44:00;16.000000; 0.000000038677;0.05-0.4nm
2024-01-09;00:45:00;16.000000; 0.000000039334;0.05-0.4nm
2024-01-09;00:46:00;16.000000; 0.000000038168;0.05-0.4nm
2024-01-09;00:47:00;16.000000; 0.000000037609;0.05-0.4nm
2024-01-09;00:48:00;16.000000; 0.000000034661;0.05-0.4nm
2024-01-09;00:49:00;16.000000; 0.000000033997;0.05-0.4nm
2024-01-09;00:50:00;16.000000; 0.000000036624;0.05-0.4nm
2024-01-09;00:51:00;16.000000; 0.000000033537;0.05-0.4nm
2024-01-09;00:52:00;16.000000; 0.000000033372;0.05-0.4nm
2024-01-09;00:53:00;16.000000; 0.000000033032;0.05-0.4nm
2024-01-09;00:54:00;16.000000; 0.000000032889;0.05-0.4nm
2024-01-09;00:55:00;16.000000; 0.000000034941;0.05-0.4nm
2024-01-09;00:56:00;16.000000; 0.000000039883;0.05-0.4nm
2024-01-09;00:57:00;16.000000; 0.000000044533;0.05-0.4nm
2024-01-09;00:58:00;16.000000; 0.000000045781;0.05-0.4nm
2024-01-09;00:59:00;16.000000; 0.000000048188;0.05-0.4nm
2024-01-09;01:00:00;16.000000; 0.000000049798;0.05-0.4nm
2024-01-09;01:01:00;16.000000; 0.000000046160;0.05-0.4nm
2024-01-09;01:02:00;16.000000; 0.000000046613;0.05-0.4nm
2024-01-09;01:03:00;16.000000; 0.000000068165;0.05-0.4nm
2024-01-09;01:04:00;16.000000; 0.000000088627;0.05-0.4nm
2024-01-09;01:05:00;16.000000; 0.000000072099;0.05-0.4nm
2024-01-09;01:06:00;16.000000; 0.000000058907;0.05-0.4nm
2024-01-09;01:07:00;16.000000; 0.000000051126;0.05-0.4nm
2024-01-09;01:08:00;16.000000; 0.000000049823;0.05-0.4nm
2024-01-09;01:09:00;16.000000; 0.000000047653;0.05-0.4nm
2024-01-09;01:10:00;16.000000; 0.000000044250;0.05-0.4nm
2024-01-09;01:11:00;16.000000; 0.000000044054;0.05-0.4nm
2024-01-09;01:12:00;16.000000; 0.000000043782;0.05-0.4nm
2024-01-09;01:13:00;16.000000; 0.000000044177;0.05-0.4nm
2024-01-09;01:14:00;16.000000; 0.000000043865;0.05-0.4nm
2024-01-09;01:15:00;16.000000; 0.000000043776;0.05-0.4nm
2024-01-09;01:16:00;16.000000; 0.000000043403;0.05-0.4nm
2024-01-09;01:17:00;16.000000; 0.000000040702;0.05-0.4nm
2024-01-09;01:18:00;16.000000; 0.000000038347;0.05-0.4nm
2024-01-09;01:19:00;16.000000; 0.000000038267;0.05-0.4nm
2024-01-09;01:20:00;16.000000; 0.000000036383;0.05-0.4nm
2024-01-09;01:21:00;16.000000; 0.000000034937;0.05-0.4nm
2024-01-09;01:22:00;16.000000; 0.000000035757;0.05-0.4nm
2024-01-09;01:23:00;16.000000; 0.000000034677;0.05-0.4nm
2024-01-09;01:24:00;16.000000; 0.000000034595;0.05-0.4nm
2024-01-09;01:25:00;16.000000; 0.000000034995;0.05-0.4nm
2024-01-09;01:26:00;16.000000; 0.000000034290;0.05-0.4nm
2024-01-09;01:27:00;16.000000; 0.000000032730;0.05-0.4nm
2024-01-09;01:28:00;16.000000; 0.000000032292;0.05-0.4nm
2024-01-09;01:29:00;16.000000; 0.000000032976;0.05-0.4nm
2024-01-09;01:30:00;16.000000; 0.000000031319;0.05-0.4nm
2024-01-09;01:31:00;16.000000; 0.000000030952;0.05-0.4nm
2024-01-09;01:32:00;16.000000; 0.000000030738;0.05-0.4nm
2024-01-09;01:33:00;16.000000; 0.000000030434;0.05-0.4nm
2024-01-09;01:34:00;16.000000; 0.000000029941;0.05-0.4nm
2024-01-09;01:35:00;16.000000; 0.000000030076;0.05-0.4nm
2024-01-09;01:36:00;16.000000; 0.000000030909;0.05-0.4nm
2024-01-09;01:37:00;16.000000; 0.000000030147;0.05-0.4nm
2024-01-09;01:38:00;16.000000; 0.000000028865;0.05-0.4nm
2024-01-09;01:39:00;16.000000; 0.000000027231;0.05-0.4nm
2024-01-09;01:40:00;16.000000; 0.000000027078;0.05-0.4nm
2024-01-09;01:41:00;16.000000; 0.000000027913;0.05-0.4nm
2024-01-09;01:42:00;16.000000; 0.000000027906;0.05-0.4nm
2024-01-09;01:43:00;16.000000; 0.000000026735;0.05-0.4nm
2024-01-09;01:44:00;16.000000; 0.000000027395;0.05-0.4nm
2024-01-09;01:45:00;16.000000; 0.000000026449;0.05-0.4nm
2024-01-09;01:46:00;16.000000; 0.000000027741;0.05-0.4nm
2024-01-09;01:47:00;16.000000; 0.000000028948;0.05-0.4nm
2024-01-09;01:48:00;16.000000; 0.000000026473;0.05-0.4nm
2024-01-09;01:49:00;16.000000; 0.000000025509;0.05-0.4nm
2024-01-09;01:50:00;16.000000; 0.000000025368;0.05-0.4nm
2024-01-09;01:51:00;16.000000; 0.000000024566;0.05-0.4nm
2024-01-09;01:52:00;16.000000; 0.000000024729;0.05-0.4nm
2024-01-09;01:53:00;16.000000; 0.000000023732;0.05-0.4nm
2024-01-09;01:54:00;16.000000; 0.000000023278;0.05-0.4nm
2024-01-09;01:55:00;16.000000; 0.000000023057;0.05-0.4nm
2024-01-09;01:56:00;16.000000; 0.000000022247;0.05-0.4nm
2024-01-09;01:57:00;16.000000; 0.000000024472;0.05-0.4nm
2024-01-09;01:58:00;16.000000; 0.000000026162;0.05-0.4nm
2024-01-09;01:59:00;16.000000; 0.000000031575;0.05-0.4nm
2024-01-09;02:00:00;16.000000; 0.000000032094;0.05-0.4nm
2024-01-09;02:01:00;16.000000; 0.000000031223;0.05-0.4nm
2024-01-09;02:02:00;16.000000; 0.000000031190;0.05-0.4nm
2024-01-09;02:03:00;16.000000; 0.000000029525;0.05-0.4nm
2024-01-09;02:04:00;16.000000; 0.000000027558;0.05-0.4nm
2024-01-09;02:05:00;16.000000; 0.000000025555;0.05-0.4nm
2024-01-09;02:06:00;16.000000; 0.000000024248;0.05-0.4nm
2024-01-09;02:07:00;16.000000; 0.000000024076;0.05-0.4nm
2024-01-09;02:08:00;16.000000; 0.000000023238;0.05-0.4nm
2024-01-09;02:09:00;16.000000; 0.000000023993;0.05-0.4nm
2024-01-09;02:10:00;16.000000; 0.000000024913;0.05-0.4nm
2024-01-09;02:11:00;16.000000; 0.000000024930;0.05-0.4nm
2024-01-09;02:12:00;16.000000; 0.000000026432;0.05-0.4nm
2024-01-09;02:13:00;16.000000; 0.000000026518;0.05-0.4nm
2024-01-09;02:14:00;16.000000; 0.000000027118;0.05-0.4nm
2024-01-09;02:15:00;16.000000; 0.000000028570;0.05-0.4nm
2024-01-09;02:16:00;16.000000; 0.000000026944;0.05-0.4nm
2024-01-09;02:17:00;16.000000; 0.000000028212;0.05-0.4nm
2024-01-09;02:18:00;16.000000; 0.000000027986;0.05-0.4nm
2024-01-09;02:19:00;16.000000; 0.000000028083;0.05-0.4nm
2024-01-09;02:20:00;16.000000; 0.000000029029;0.05-0.4nm
2024-01-09;02:21:00;16.000000; 0.000000029218;0.05-0.4nm
2024-01-09;02:22:00;16.000000; 0.000000029174;0.05-0.4nm
2024-01-09;02:23:00;16.000000; 0.000000029603;0.05-0.4nm
2024-01-09;02:24:00;16.000000; 0.000000027957;0.05-0.4nm
2024-01-09;02:25:00;16.000000; 0.000000026423;0.05-0.4nm
2024-01-09;02:26:00;16.000000; 0.000000023538;0.05-0.4nm
2024-01-09;02:27:00;16.000000; 0.000000022283;0.05-0.4nm
2024-01-09;02:28:00;16.000000; 0.000000021254;0.05-0.4nm
2024-01-09;02:29:00;16.000000; 0.000000021569;0.05-0.4nm
2024-01-09;02:30:00;16.000000; 0.000000021187;0.05-0.4nm
2024-01-09;02:31:00;16.000000; 0.000000021295;0.05-0.4nm
2024-01-09;02:32:00;16.000000; 0.000000021321;0.05-0.4nm
2024-01-09;02:33:00;16.000000; 0.000000020850;0.05-0.4nm
2024-01-09;02:34:00;16.000000; 0.000000022729;0.05-0.4nm
2024-01-09;02:35:00;16.000000; 0.000000023213;0.05-0.4nm
2024-01-09;02:36:00;16.000000; 0.000000023507;0.05-0.4nm
2024-01-09;02:37:00;16.000000; 0.000000021932;0.05-0.4nm
2024-01-09;02:38:00;16.000000; 0.000000020890;0.05-0.4nm
2024-01-09;02:39:00;16.000000; 0.000000020758;0.05-0.4nm
2024-01-09;02:40:00;16.000000; 0.000000020451;0.05-0.4nm
2024-01-09;02:41:00;16.000000; 0.000000020066;0.05-0.4nm
2024-01-09;02:42:00;16.000000; 0.000000018260;0.05-0.4nm
2024-01-09;02:43:00;16.000000; 0.000000018634;0.05-0.4nm
2024-01-09;02:44:00;16.000000; 0.000000019662;0.05-0.4nm
2024-01-09;02:45:00;16.000000; 0.000000023456;0.05-0.4nm
2024-01-09;02:46:00;16.000000; 0.000000038682;0.05-0.4nm
2024-01-09;02:47:00;16.000000; 0.000000068368;0.05-0.4nm
2024-01-09;02:48:00;16.000000; 0.000000085208;0.05-0.4nm
2024-01-09;02:49:00;16.000000; 0.000000079588;0.05-0.4nm
2024-01-09;02:50:00;16.000000; 0.000000064143;0.05-0.4nm
2024-01-09;02:51:00;16.000000; 0.000000051335;0.05-0.4nm
2024-01-09;02:52:00;16.000000; 0.000000042237;0.05-0.4nm
2024-01-09;02:53:00;16.000000; 0.000000035427;0.05-0.4nm
2024-01-09;02:54:00;16.000000; 0.000000029945;0.05-0.4nm
2024-01-09;02:55:00;16.000000; 0.000000025660;0.05-0.4nm
2024-01-09;02:56:00;16.000000; 0.000000024085;0.05-0.4nm
2024-01-09;02:57:00;16.000000; 0.000000022025;0.05-0.4nm
2024-01-09;02:58:00;16.000000; 0.000000021073;0.05-0.4nm
2024-01-09;02:59:00;16.000000; 0.000000020403;0.05-0.4nm
2024-01-09;03:00:00;16.000000; 0.000000019829;0.05-0.4nm
2024-01-09;03:01:00;16.000000; 0.000000019335;0.05-0.4nm
2024-01-09;03:02:00;16.000000; 0.000000019450;0.05-0.4nm
2024-01-09;03:03:00;16.000000; 0.000000020795;0.05-0.4nm
2024-01-09;03:04:00;16.000000; 0.000000020350;0.05-0.4nm
2024-01-09;03:05:00;16.000000; 0.000000021164;0.05-0.4nm
2024-01-09;03:06:00;16.000000; 0.000000020830;0.05-0.4nm
2024-01-09;03:07:00;16.000000; 0.000000020014;0.05-0.4nm
2024-01-09;03:08:00;16.000000; 0.000000019869;0.05-0.4nm
2024-01-09;03:09:00;16.000000; 0.000000020936;0.05-0.4nm
2024-01-09;03:10:00;16.000000; 0.000000021399;0.05-0.4nm
2024-01-09;03:11:00;16.000000; 0.000000019475;0.05-0.4nm
2024-01-09;03:12:00;16.000000; 0.000000020557;0.05-0.4nm
2024-01-09;03:13:00;16.000000; 0.000000021301;0.05-0.4nm
2024-01-09;03:14:00;16.000000; 0.000000022252;0.05-0.4nm
2024-01-09;03:15:00;16.000000; 0.000000022060;0.05-0.4nm
2024-01-09;03:16:00;16.000000; 0.000000021036;0.05-0.4nm
2024-01-09;03:17:00;16.000000; 0.000000019721;0.05-0.4nm
2024-01-09;03:18:00;16.000000; 0.000000018127;0.05-0.4nm
2024-01-09;03:19:00;16.000000; 0.000000018588;0.05-0.4nm
2024-01-09;03:20:00;16.000000; 0.000000020521;0.05-0.4nm
2024-01-09;03:21:00;16.000000; 0.000000021301;0.05-0.4nm
2024-01-09;03:22:00;16.000000; 0.000000019841;0.05-0.4nm
2024-01-09;03:23:00;16.000000; 0.000000019432;0.05-0.4nm
2024-01-09;03:24:00;16.000000; 0.000000021392;0.05-0.4nm
2024-01-09;03:25:00;16.000000; 0.000000021998;0.05-0.4nm
2024-01-09;03:26:00;16.000000; 0.000000024799;0.05-0.4nm
2024-01-09;03:27:00;16.000000; 0.000000027055;0.05-0.4nm
2024-01-09;03:28:00;16.000000; 0.000000026891;0.05-0.4nm
2024-01-09;03:29:00;16.000000; 0.000000026793;0.05-0.4nm
2024-01-09;03:30:00;16.000000; 0.000000023266;0.05-0.4nm
2024-01-09;03:31:00;16.000000; 0.000000021471;0.05-0.4nm
2024-01-09;03:32:00;16.000000; 0.000000019432;0.05-0.4nm
2024-01-09;03:33:00;16.000000; 0.000000020855;0.05-0.4nm
2024-01-09;03:34:00;16.000000; 0.000000020123;0.05-0.4nm
2024-01-09;03:35:00;16.000000; 0.000000021332;0.05-0.4nm
2024-01-09;03:36:00;16.000000; 0.000000020793;0.05-0.4nm
2024-01-09;03:37:00;16.000000; 0.000000019938;0.05-0.4nm
2024-01-09;03:38:00;16.000000; 0.000000019650;0.05-0.4nm
2024-01-09;03:39:00;16.000000; 0.000000019909;0.05-0.4nm
2024-01-09;03:40:00;16.000000; 0.000000020563;0.05-0.4nm
2024-01-09;03:41:00;16.000000; 0.000000019856;0.05-0.4nm
2024-01-09;03:42:00;16.000000; 0.000000018862;0.05-0.4nm
2024-01-09;03:43:00;16.000000; 0.000000018509;0.05-0.4nm
2024-01-09;03:44:00;16.000000; 0.000000017735;0.05-0.4nm
2024-01-09;03:45:00;16.000000; 0.000000019031;0.05-0.4nm
2024-01-09;03:46:00;16.000000; 0.000000017873;0.05-0.4nm
2024-01-09;03:47:00;16.000000; 0.000000018627;0.05-0.4nm
2024-01-09;03:48:00;16.000000; 0.000000019175;0.05-0.4nm
2024-01-09;03:49:00;16.000000; 0.000000021535;0.05-0.4nm
2024-01-09;03:50:00;16.000000; 0.000000022847;0.05-0.4nm
2024-01-09;03:51:00;16.000000; 0.000000025772;0.05-0.4nm
2024-01-09;03:52:00;16.000000; 0.000000028610;0.05-0.4nm
2024-01-09;03:53:00;16.000000; 0.000000031634;0.05-0.4nm
2024-01-09;03:54:00;16.000000; 0.000000034698;0.05-0.4nm
2024-01-09;03:55:00;16.000000; 0.000000037154;0.05-0.4nm
2024-01-09;03:56:00;16.000000; 0.000000040814;0.05-0.4nm
2024-01-09;03:57:00;16.000000; 0.000000041595;0.05-0.4nm
2024-01-09;03:58:00;16.000000; 0.000000042440;0.05-0.4nm
2024-01-09;03:59:00;16.000000; 0.000000042157;0.05-0.4nm
2024-01-09;04:00:00;16.000000; 0.000000041735;0.05-0.4nm
2024-01-09;04:01:00;16.000000; 0.000000041720;0.05-0.4nm
2024-01-09;04:02:00;16.000000; 0.000000040522;0.05-0.4nm
2024-01-09;04:03:00;16.000000; 0.000000042700;0.05-0.4nm
2024-01-09;04:04:00;16.000000; 0.000000044368;0.05-0.4nm
2024-01-09;04:05:00;16.000000; 0.000000056068;0.05-0.4nm
2024-01-09;04:06:00;16.000000; 0.000000093825;0.05-0.4nm
2024-01-09;04:07:00;16.000000; 0.000000160116;0.05-0.4nm
2024-01-09;04:08:00;16.000000; 0.000000196429;0.05-0.4nm
2024-01-09;04:09:00;16.000000; 0.000000210285;0.05-0.4nm
2024-01-09;04:10:00;16.000000; 0.000000201949;0.05-0.4nm
2024-01-09;04:11:00;16.000000; 0.000000189969;0.05-0.4nm
2024-01-09;04:12:00;16.000000; 0.000000183170;0.05-0.4nm
2024-01-09;04:13:00;16.000000; 0.000000171995;0.05-0.4nm
2024-01-09;04:14:00;16.000000; 0.000000164180;0.05-0.4nm
2024-01-09;04:15:00;16.000000; 0.000000160526;0.05-0.4nm
2024-01-09;04:16:00;16.000000; 0.000000163767;0.05-0.4nm
2024-01-09;04:17:00;16.000000; 0.000000162083;0.05-0.4nm
2024-01-09;04:18:00;16.000000; 0.000000156920;0.05-0.4nm
2024-01-09;04:19:00;16.000000; 0.000000150800;0.05-0.4nm
2024-01-09;04:20:00;16.000000; 0.000000144365;0.05-0.4nm
2024-01-09;04:21:00;16.000000; 0.000000137589;0.05-0.4nm
2024-01-09;04:22:00;16.000000; 0.000000130442;0.05-0.4nm
2024-01-09;04:23:00;16.000000; 0.000000123976;0.05-0.4nm
2024-01-09;04:24:00;16.000000; 0.000000121078;0.05-0.4nm
2024-01-09;04:25:00;16.000000; 0.000000117988;0.05-0.4nm
2024-01-09;04:26:00;16.000000; 0.000000112187;0.05-0.4nm
2024-01-09;04:27:00;16.000000; 0.000000107429;0.05-0.4nm
2024-01-09;04:28:00;16.000000; 0.000000103100;0.05-0.4nm
2024-01-09;04:29:00;16.000000; 0.000000095953;0.05-0.4nm
2024-01-09;04:30:00;16.000000; 0.000000089399;0.05-0.4nm
2024-01-09;04:31:00;16.000000; 0.000000083394;0.05-0.4nm
2024-01-09;04:32:00;16.000000; 0.000000077113;0.05-0.4nm
2024-01-09;04:33:00;16.000000; 0.000000073170;0.05-0.4nm
2024-01-09;04:34:00;16.000000; 0.000000069556;0.05-0.4nm
2024-01-09;04:35:00;16.000000; 0.000000066871;0.05-0.4nm
2024-01-09;04:36:00;16.000000; 0.000000062892;0.05-0.4nm
2024-01-09;04:37:00;16.000000; 0.000000059313;0.05-0.4nm
2024-01-09;04:38:00;16.000000; 0.000000056995;0.05-0.4nm
2024-01-09;04:39:00;16.000000; 0.000000054613;0.05-0.4nm
2024-01-09;04:40:00;16.000000; 0.000000051414;0.05-0.4nm
2024-01-09;04:41:00;16.000000; 0.000000048368;0.05-0.4nm
2024-01-09;04:42:00;16.000000; 0.000000045434;0.05-0.4nm
2024-01-09;04:43:00;16.000000; 0.000000043993;0.05-0.4nm
2024-01-09;04:44:00;16.000000; 0.000000041892;0.05-0.4nm
2024-01-09;04:45:00;16.000000; 0.000000041863;0.05-0.4nm
2024-01-09;04:46:00;16.000000; 0.000000040200;0.05-0.4nm
2024-01-09;04:47:00;16.000000; 0.000000038867;0.05-0.4nm
2024-01-09;04:48:00;16.000000; 0.000000038195;0.05-0.4nm
2024-01-09;04:49:00;16.000000; 0.000000038781;0.05-0.4nm
2024-01-09;04:50:00;16.000000; 0.000000036140;0.05-0.4nm
2024-01-09;04:51:00;16.000000; 0.000000035428;0.05-0.4nm
2024-01-09;04:52:00;16.000000; 0.000000034352;0.05-0.4nm
2024-01-09;04:53:00;16.000000; 0.000000033876;0.05-0.4nm
2024-01-09;04:54:00;16.000000; 0.000000033363;0.05-0.4nm
2024-01-09;04:55:00;16.000000; 0.000000034071;0.05-0.4nm
2024-01-09;04:56:00;16.000000; 0.000000034185;0.05-0.4nm
2024-01-09;04:57:00;16.000000; 0.000000033848;0.05-0.4nm
2024-01-09;04:58:00;16.000000; 0.000000034388;0.05-0.4nm
2024-01-09;04:59:00;16.000000; 0.000000035312;0.05-0.4nm
2024-01-09;05:00:00;16.000000; 0.000000033780;0.05-0.4nm
2024-01-09;05:01:00;16.000000; 0.000000033071;0.05-0.4nm
2024-01-09;05:02:00;16.000000; 0.000000031949;0.05-0.4nm
2024-01-09;05:03:00;16.000000; 0.000000030066;0.05-0.4nm
2024-01-09;05:04:00;16.000000; 0.000000028772;0.05-0.4nm
2024-01-09;05:05:00;16.000000; 0.000000028494;0.05-0.4nm
2024-01-09;05:06:00;16.000000; 0.000000027729;0.05-0.4nm
2024-01-09;05:07:00;16.000000; 0.000000028010;0.05-0.4nm
2024-01-09;05:08:00;16.000000; 0.000000028438;0.05-0.4nm
2024-01-09;05:09:00;16.000000; 0.000000025922;0.05-0.4nm
2024-01-09;05:10:00;16.000000; 0.000000025553;0.05-0.4nm
2024-01-09;05:11:00;16.000000; 0.000000024966;0.05-0.4nm
2024-01-09;05:12:00;16.000000; 0.000000023485;0.05-0.4nm
2024-01-09;05:13:00;16.000000; 0.000000024227;0.05-0.4nm
2024-01-09;05:14:00;16.000000; 0.000000025412;0.05-0.4nm
2024-01-09;05:15:00;16.000000; 0.000000024515;0.05-0.4nm
2024-01-09;05:16:00;16.000000; 0.000000024725;0.05-0.4nm
2024-01-09;05:17:00;16.000000; 0.000000023638;0.05-0.4nm
2024-01-09;05:18:00;16.000000; 0.000000023281;0.05-0.4nm
2024-01-09;05:19:00;16.000000; 0.000000024676;0.05-0.4nm
2024-01-09;05:20:00;16.000000; 0.000000025693;0.05-0.4nm
2024-01-09;05:21:00;16.000000; 0.000000025491;0.05-0.4nm
2024-01-09;05:22:00;16.000000; 0.000000025512;0.05-0.4nm
2024-01-09;05:23:00;16.000000; 0.000000026527;0.05-0.4nm
2024-01-09;05:24:00;16.000000; 0.000000026631;0.05-0.4nm
2024-01-09;05:25:00;16.000000; 0.000000027503;0.05-0.4nm
2024-01-09;05:26:00;16.000000; 0.000000027752;0.05-0.4nm
2024-01-09;05:27:00;16.000000; 0.000000027325;0.05-0.4nm
2024-01-09;05:28:00;16.000000; 0.000000028530;0.05-0.4nm
2024-01-09;05:29:00;16.000000; 0.000000029581;0.05-0.4nm
2024-01-09;05:30:00;16.000000; 0.000000029540;0.05-0.4nm
2024-01-09;05:31:00;16.000000; 0.000000031383;0.05-0.4nm
2024-01-09;05:32:00;16.000000; 0.000000030465;0.05-0.4nm
2024-01-09;05:33:00;16.000000; 0.000000031366;0.05-0.4nm
2024-01-09;05:34:00;16.000000; 0.000000030904;0.05-0.4nm
2024-01-09;05:35:00;16.000000; 0.000000031217;0.05-0.4nm
2024-01-09;05:36:00;16.000000; 0.000000032775;0.05-0.4nm
2024-01-09;05:37:00;16.000000; 0.000000031665;0.05-0.4nm
2024-01-09;05:38:00;16.000000; 0.000000033217;0.05-0.4nm
2024-01-09;05:39:00;16.000000; 0.000000033700;0.05-0.4nm
2024-01-09;05:40:00;16.000000; 0.000000033832;0.05-0.4nm
2024-01-09;05:41:00;16.000000; 0.000000032806;0.05-0.4nm
2024-01-09;05:42:00;16.000000; 0.000000036018;0.05-0.4nm
2024-01-09;05:43:00;16.000000; 0.000000036601;0.05-0.4nm
2024-01-09;05:44:00;16.000000; 0.000000037712;0.05-0.4nm
2024-01-09;05:45:00;16.000000; 0.000000041316;0.05-0.4nm
2024-01-09;05:46:00;16.000000; 0.000000041231;0.05-0.4nm
2024-01-09;05:47:00;16.000000; 0.000000040539;0.05-0.4nm
2024-01-09;05:48:00;16.000000; 0.000000042520;0.05-0.4nm
2024-01-09;05:49:00;16.000000; 0.000000047530;0.05-0.4nm
2024-01-09;05:50:00;16.000000; 0.000000056303;0.05-0.4nm
2024-01-09;05:51:00;16.000000; 0.000000061412;0.05-0.4nm
2024-01-09;05:52:00;16.000000; 0.000000055806;0.05-0.4nm
2024-01-09;05:53:00;16.000000; 0.000000048499;0.05-0.4nm
2024-01-09;05:54:00;16.000000; 0.000000042134;0.05-0.4nm
2024-01-09;05:55:00;16.000000; 0.000000036582;0.05-0.4nm
2024-01-09;05:56:00;16.000000; 0.000000033749;0.05-0.4nm
2024-01-09;05:57:00;16.000000; 0.000000031191;0.05-0.4nm
2024-01-09;05:58:00;16.000000; 0.000000030386;0.05-0.4nm
2024-01-09;05:59:00;16.000000; 0.000000031428;0.05-0.4nm
2024-01-09;06:00:00;16.000000; 0.000000031386;0.05-0.4nm
2024-01-09;06:01:00;16.000000; 0.000000027616;0.05-0.4nm
2024-01-09;06:02:00;16.000000; 0.000000027547;0.05-0.4nm
2024-01-09;06:03:00;16.000000; 0.000000027009;0.05-0.4nm
2024-01-09;06:04:00;16.000000; 0.000000025887;0.05-0.4nm
2024-01-09;06:05:00;16.000000; 0.000000026887;0.05-0.4nm
2024-01-09;06:06:00;16.000000; 0.000000023822;0.05-0.4nm
2024-01-09;06:07:00;16.000000; 0.000000023239;0.05-0.4nm
2024-01-09;06:08:00;16.000000; 0.000000022293;0.05-0.4nm
2024-01-09;06:09:00;16.000000; 0.000000022043;0.05-0.4nm
2024-01-09;06:10:00;16.000000; 0.000000024606;0.05-0.4nm
2024-01-09;06:11:00;16.000000; 0.000000022849;0.05-0.4nm
2024-01-09;06:12:00;16.000000; 0.000000021653;0.05-0.4nm
2024-01-09;06:13:00;16.000000; 0.000000023536;0.05-0.4nm
2024-01-09;06:14:00;16.000000; 0.000000024497;0.05-0.4nm
2024-01-09;06:15:00;16.000000; 0.000000022401;0.05-0.4nm
2024-01-09;06:16:00;16.000000; 0.000000021755;0.05-0.4nm
2024-01-09;06:17:00;16.000000; 0.000000022748;0.05-0.4nm
2024-01-09;06:18:00;16.000000; 0.000000021881;0.05-0.4nm
2024-01-09;06:19:00;16.000000; 0.000000022077;0.05-0.4nm
2024-01-09;06:20:00;16.000000; 0.000000022915;0.05-0.4nm
2024-01-09;06:21:00;16.000000; 0.000000022634;0.05-0.4nm
2024-01-09;06:22:00;16.000000; 0.000000022211;0.05-0.4nm
2024-01-09;06:23:00;16.000000; 0.000000022040;0.05-0.4nm
2024-01-09;06:24:00;16.000000; 0.000000020714;0.05-0.4nm
2024-01-09;06:25:00;16.000000; 0.000000022343;0.05-0.4nm
2024-01-09;06:26:00;16.000000; 0.000000019654;0.05-0.4nm
2024-01-09;06:27:00;16.000000; 0.000000020349;0.05-0.4nm
2024-01-09;06:28:00;16.000000; 0.000000018103;0.05-0.4nm
2024-01-09;06:29:00;16.000000; 0.000000018377;0.05-0.4nm
2024-01-09;06:30:00;16.000000; 0.000000022294;0.05-0.4nm
2024-01-09;06:31:00;16.000000; 0.000000021252;0.05-0.4nm